Torna al catalogo

METEOR 2-5 DEB

AttivoPO
NORAD 29292·DEBRIS·🇷🇺 Russia

Lanciato Oct 31, 1979 da Plesetsk Cosmodrome

Loading…

Prossimi Passaggi (prossime 24 ore)

TLE

In scadenzaSource: Space-Track

Epoca: Sep 9, 2026, 23:23 UTC

1 29292U 79095R   26252.97462016  .00004284  00000-0  11154-2 0  9998
2 29292  81.1856 338.8766 0011192 200.5092 159.5653 14.49440100128820

Traccia METEOR 2-5 DEB in tempo reale con AllMySat

Download on the App Store